Location: Boiro
(42.6475°N, 8.8834°W)
Time: 08:21:50
(UTC+01:00)

Vanguard 3 - Pass Details

Date: 04 December 2021
Orbit: 508 x 3260 km, 33.3° (Epoch: 24 January)

Event Time Altitude Azimuth Distance (km) Brightness Sun altitude
Rises 02:58:09 0° 205° (SSW) 6,524 - -62.0°
Reaches altitude 10° 03:03:03 10° 195° (SSW) 5,797 - -61.3°
Maximum altitude 03:18:04 31° 142° (SE) 4,664 - -59.0°
Exits shadow 03:18:33 31° 140° (SE) 4,666 10.8 -58.9°
Drops below altitude 10° 03:33:03 10° 90° (E) 5,835 11.8 -56.6°
Sets 03:37:54 0° 81° (E) 6,577 12.3 -55.8°
